sat.trackr.live / text

‹ back to catalog

LINUSS2

NORAD 55247 · 2022-144H

PAYLOAD ACTIVE UNKNOWN

§ Identity

Operator
Country
US
Launch date
2022-11-01
Launch site
AFETR
Launch vehicle
Mass (kg)
RCS (m²)

External: N2YO · Heavens-Above · Gunter

§ Orbital elements

Epoch: 2026-05-25T00:11:15.946080Z

Period
1,453.76 min
Inclination
5.3265°
Eccentricity
0.0008994
Mean motion
0.99053278 rev/d
Perigee alt
36,093.5 km
Apogee alt
36,169.9 km
Semi-major
42,509.8 km
B*
0.0000e+0
RAAN
64.3491°
Arg perigee
311.8034°
Mean anomaly
201.2798°
Rev number
1,148

§ Raw data

LINUSS21 55247U 22144H   26145.00782345 -.00000245  00000+0  00000+0 0  99932 55247   5.3265  64.3491 0008994 311.8034 201.2798  0.99053278 11489

JSON: /api/v1/satellites/55247 · /tle

For live sub-satellite position, see the globe view (requires WebGL).

§ Visibility from observer

Set your observer location to see the next 7 days of passes ≥ 10°. The values pass through the URL so the page stays shareable.

No JS? Fill the form by hand. The geolocation button needs JavaScript.